owner,sensor,date,latitude,longitude,sea_surface_height_above_sea_level,qcFlag 
TCOON,ioos:station:TCOON:524:1,2014-06-01T00:00:00Z,29.8672,-93.9310,1.838,1111122 
TCOON,ioos:station:TCOON:524:1,2014-06-01T01:00:00Z,29.8672,-93.9310,1.787,1111122 
TCOON,ioos:station:TCOON:524:1,2014-06-01T01:54:00Z,29.8672,-93.9310,1.678,1111122 
TCOON,ioos:station:TCOON:524:1,2014-06-01T03:00:00Z,29.8672,-93.9310,1.722,1111122 
TCOON,ioos:station:TCOON:524:1,2014-06-01T04:00:00Z,29.8672,-93.9310,1.633,1111122 
TCOON,ioos:station:TCOON:524:1,2014-06-01T05:00:00Z,29.8672,-93.9310,1.589,1111122 
TCOON,ioos:station:TCOON:524:1,2014-06-01T06:30:00Z,29.8672,-93.9310,1.507,1111122 
TCOON,ioos:station:TCOON:524:1,2014-06-01T07:00:00Z,29.8672,-93.9310,1.575,1111122 
TCOON,ioos:station:TCOON:524:1,2014-06-01T08:00:00Z,29.8672,-93.9310,1.627,1111122 
TCOON,ioos:station:TCOON:524:1,2014-06-01T09:00:00Z,29.8672,-93.9310,1.629,1111122 
TCOON,ioos:station:TCOON:524:1,2014-06-01T10:00:00Z,29.8672,-93.9310,1.675,1111122 
TCOON,ioos:station:TCOON:524:1,2014-06-01T11:00:00Z,29.8672,-93.9310,1.776,1111122 
TCOON,ioos:station:TCOON:524:1,2014-06-01T12:00:00Z,29.8672,-93.9310,1.831,1111122 
TCOON,ioos:station:TCOON:524:1,2014-06-01T13:00:00Z,29.8672,-93.9310,1.793,1111122 
TCOON,ioos:station:TCOON:524:1,2014-06-01T14:00:00Z,29.8672,-93.9310,1.925,1111122 
TCOON,ioos:station:TCOON:524:1,2014-06-01T15:00:00Z,29.8672,-93.9310,1.895,1111122 
TCOON,ioos:station:TCOON:524:1,2014-06-01T16:00:00Z,29.8672,-93.9310,1.879,1111122 
TCOON,ioos:station:TCOON:524:1,2014-06-01T17:00:00Z,29.8672,-93.9310,1.898,1111122 
TCOON,ioos:station:TCOON:524:1,2014-06-01T18:00:00Z,29.8672,-93.9310,1.913,1111122 
TCOON,ioos:station:TCOON:524:1,2014-06-01T19:00:00Z,29.8672,-93.9310,1.914,1111122 
TCOON,ioos:station:TCOON:524:1,2014-06-01T20:00:00Z,29.8672,-93.9310,1.922,1111122 
TCOON,ioos:station:TCOON:524:1,2014-06-01T21:00:00Z,29.8672,-93.9310,1.932,1111122 
TCOON,ioos:station:TCOON:524:1,2014-06-01T22:00:00Z,29.8672,-93.9310,1.931,1111122 
TCOON,ioos:station:TCOON:524:1,2014-06-01T23:00:00Z,29.8672,-93.9310,1.923,1111122 
TCOON,ioos:station:TCOON:524:1,2014-06-01T23:54:00Z,29.8672,-93.9310,1.935,1111122 
TCOON,ioos:station:TCOON:524:1,2014-06-02T01:00:00Z,29.8672,-93.9310,1.926,1111122 
TCOON,ioos:station:TCOON:524:1,2014-06-02T02:00:00Z,29.8672,-93.9310,1.9,1111122 
TCOON,ioos:station:TCOON:524:1,2014-06-02T03:00:00Z,29.8672,-93.9310,1.872,1111122 
TCOON,ioos:station:TCOON:524:1,2014-06-02T04:00:00Z,29.8672,-93.9310,1.821,1111122 
TCOON,ioos:station:TCOON:524:1,2014-06-02T05:00:00Z,29.8672,-93.9310,1.781,1111122 
TCOON,ioos:station:TCOON:524:1,2014-06-02T06:36:00Z,29.8672,-93.9310,1.746,1111122 
TCOON,ioos:station:TCOON:524:1,2014-06-02T07:00:00Z,29.8672,-93.9310,1.742,1111122 
TCOON,ioos:station:TCOON:524:1,2014-06-02T08:00:00Z,29.8672,-93.9310,1.746,1111122 
TCOON,ioos:station:TCOON:524:1,2014-06-02T09:00:00Z,29.8672,-93.9310,1.755,1111122 
TCOON,ioos:station:TCOON:524:1,2014-06-02T10:00:00Z,29.8672,-93.9310,1.789,1111122 
TCOON,ioos:station:TCOON:524:1,2014-06-02T11:00:00Z,29.8672,-93.9310,1.809,1111122 
TCOON,ioos:station:TCOON:524:1,2014-06-02T12:00:00Z,29.8672,-93.9310,1.841,1111122 
TCOON,ioos:station:TCOON:524:1,2014-06-02T12:54:00Z,29.8672,-93.9310,1.942,1111122 
TCOON,ioos:station:TCOON:524:1,2014-06-02T14:00:00Z,29.8672,-93.9310,1.969,1111122 
TCOON,ioos:station:TCOON:524:1,2014-06-02T15:00:00Z,29.8672,-93.9310,1.891,1111122 
TCOON,ioos:station:TCOON:524:1,2014-06-02T16:00:00Z,29.8672,-93.9310,1.97,1111122 
TCOON,ioos:station:TCOON:524:1,2014-06-02T17:00:00Z,29.8672,-93.9310,1.955,1111122 
TCOON,ioos:station:TCOON:524:1,2014-06-02T18:00:00Z,29.8672,-93.9310,1.953,1111122 
TCOON,ioos:station:TCOON:524:1,2014-06-02T19:00:00Z,29.8672,-93.9310,1.951,1111122 
TCOON,ioos:station:TCOON:524:1,2014-06-02T20:00:00Z,29.8672,-93.9310,1.944,1111122 
TCOON,ioos:station:TCOON:524:1,2014-06-02T21:00:00Z,29.8672,-93.9310,1.92,1111122 
TCOON,ioos:station:TCOON:524:1,2014-06-02T22:00:00Z,29.8672,-93.9310,1.922,1111122 
TCOON,ioos:station:TCOON:524:1,2014-06-02T23:00:00Z,29.8672,-93.9310,1.918,1111122 
TCOON,ioos:station:TCOON:524:1,2014-06-02T23:54:00Z,29.8672,-93.9310,1.897,1111122 
TCOON,ioos:station:TCOON:524:1,2014-06-03T01:00:00Z,29.8672,-93.9310,1.922,1111122 
TCOON,ioos:station:TCOON:524:1,2014-06-03T02:00:00Z,29.8672,-93.9310,1.898,1111122 
TCOON,ioos:station:TCOON:524:1,2014-06-03T03:00:00Z,29.8672,-93.9310,1.867,1111122 
TCOON,ioos:station:TCOON:524:1,2014-06-03T04:00:00Z,29.8672,-93.9310,1.857,1111122 
TCOON,ioos:station:TCOON:524:1,2014-06-03T05:00:00Z,29.8672,-93.9310,1.833,1111122 
TCOON,ioos:station:TCOON:524:1,2014-06-03T06:24:00Z,29.8672,-93.9310,1.761,1111122 
TCOON,ioos:station:TCOON:524:1,2014-06-03T07:00:00Z,29.8672,-93.9310,1.743,1111122 
TCOON,ioos:station:TCOON:524:1,2014-06-03T08:00:00Z,29.8672,-93.9310,1.729,1111122 
TCOON,ioos:station:TCOON:524:1,2014-06-03T09:00:00Z,29.8672,-93.9310,1.712,1111122 
TCOON,ioos:station:TCOON:524:1,2014-06-03T10:00:00Z,29.8672,-93.9310,1.726,1111122 
TCOON,ioos:station:TCOON:524:1,2014-06-03T11:00:00Z,29.8672,-93.9310,1.764,1111122 
TCOON,ioos:station:TCOON:524:1,2014-06-03T12:00:00Z,29.8672,-93.9310,1.783,1111122 
TCOON,ioos:station:TCOON:524:1,2014-06-03T13:00:00Z,29.8672,-93.9310,1.817,1111122 
TCOON,ioos:station:TCOON:524:1,2014-06-03T14:00:00Z,29.8672,-93.9310,1.867,1111122 
TCOON,ioos:station:TCOON:524:1,2014-06-03T15:00:00Z,29.8672,-93.9310,1.922,1111122 
TCOON,ioos:station:TCOON:524:1,2014-06-03T16:00:00Z,29.8672,-93.9310,1.908,1111122 
TCOON,ioos:station:TCOON:524:1,2014-06-03T17:00:00Z,29.8672,-93.9310,1.917,1111122 
TCOON,ioos:station:TCOON:524:1,2014-06-03T18:00:00Z,29.8672,-93.9310,1.905,1111122 
TCOON,ioos:station:TCOON:524:1,2014-06-03T19:00:00Z,29.8672,-93.9310,1.895,1111122 
TCOON,ioos:station:TCOON:524:1,2014-06-03T20:00:00Z,29.8672,-93.9310,1.883,1111122 
TCOON,ioos:station:TCOON:524:1,2014-06-03T21:00:00Z,29.8672,-93.9310,1.92,1111122 
TCOON,ioos:station:TCOON:524:1,2014-06-03T22:00:00Z,29.8672,-93.9310,1.871,1111122 
TCOON,ioos:station:TCOON:524:1,2014-06-03T23:00:00Z,29.8672,-93.9310,1.841,1111122 
TCOON,ioos:station:TCOON:524:1,2014-06-04T00:00:00Z,29.8672,-93.9310,1.862,1111122 
TCOON,ioos:station:TCOON:524:1,2014-06-04T01:00:00Z,29.8672,-93.9310,1.927,1111122 
TCOON,ioos:station:TCOON:524:1,2014-06-04T01:54:00Z,29.8672,-93.9310,1.839,1111122 
TCOON,ioos:station:TCOON:524:1,2014-06-04T03:00:00Z,29.8672,-93.9310,1.826,1111122 
TCOON,ioos:station:TCOON:524:1,2014-06-04T04:00:00Z,29.8672,-93.9310,1.856,1111122 
TCOON,ioos:station:TCOON:524:1,2014-06-04T05:00:00Z,29.8672,-93.9310,1.79,1111122 
TCOON,ioos:station:TCOON:524:1,2014-06-04T06:00:00Z,29.8672,-93.9310,1.766,1111122 
TCOON,ioos:station:TCOON:524:1,2014-06-04T07:00:00Z,29.8672,-93.9310,1.73,1111122 
TCOON,ioos:station:TCOON:524:1,2014-06-04T08:00:00Z,29.8672,-93.9310,1.694,1111122 
TCOON,ioos:station:TCOON:524:1,2014-06-04T09:00:00Z,29.8672,-93.9310,1.698,1111122 
TCOON,ioos:station:TCOON:524:1,2014-06-04T10:00:00Z,29.8672,-93.9310,1.713,1111122 
TCOON,ioos:station:TCOON:524:1,2014-06-04T11:00:00Z,29.8672,-93.9310,1.711,1111122 
TCOON,ioos:station:TCOON:524:1,2014-06-04T12:00:00Z,29.8672,-93.9310,1.737,1111122 
TCOON,ioos:station:TCOON:524:1,2014-06-04T13:00:00Z,29.8672,-93.9310,1.796,1111122 
TCOON,ioos:station:TCOON:524:1,2014-06-04T14:00:00Z,29.8672,-93.9310,1.814,1111122 
TCOON,ioos:station:TCOON:524:1,2014-06-04T15:00:00Z,29.8672,-93.9310,1.857,1111122 
TCOON,ioos:station:TCOON:524:1,2014-06-04T16:00:00Z,29.8672,-93.9310,1.887,1111122 
TCOON,ioos:station:TCOON:524:1,2014-06-04T17:00:00Z,29.8672,-93.9310,1.897,1111122 
TCOON,ioos:station:TCOON:524:1,2014-06-04T18:00:00Z,29.8672,-93.9310,1.904,1111122 
TCOON,ioos:station:TCOON:524:1,2014-06-04T19:00:00Z,29.8672,-93.9310,1.875,1111122 
TCOON,ioos:station:TCOON:524:1,2014-06-04T20:00:00Z,29.8672,-93.9310,1.858,1111122 
TCOON,ioos:station:TCOON:524:1,2014-06-04T21:00:00Z,29.8672,-93.9310,1.84,1111122 
TCOON,ioos:station:TCOON:524:1,2014-06-04T22:00:00Z,29.8672,-93.9310,1.844,1111122 
TCOON,ioos:station:TCOON:524:1,2014-06-04T23:00:00Z,29.8672,-93.9310,1.81,1111122 
TCOON,ioos:station:TCOON:524:1,2014-06-05T00:00:00Z,29.8672,-93.9310,1.772,1111122 
TCOON,ioos:station:TCOON:524:1,2014-06-05T00:54:00Z,29.8672,-93.9310,1.807,1111122 
TCOON,ioos:station:TCOON:524:1,2014-06-05T01:54:00Z,29.8672,-93.9310,1.805,1111122 
TCOON,ioos:station:TCOON:524:1,2014-06-05T03:00:00Z,29.8672,-93.9310,1.785,1111122 
TCOON,ioos:station:TCOON:524:1,2014-06-05T04:00:00Z,29.8672,-93.9310,1.789,1111122 
TCOON,ioos:station:TCOON:524:1,2014-06-05T05:00:00Z,29.8672,-93.9310,1.777,1111122 
TCOON,ioos:station:TCOON:524:1,2014-06-05T06:18:00Z,29.8672,-93.9310,1.742,1111122 
TCOON,ioos:station:TCOON:524:1,2014-06-05T06:54:00Z,29.8672,-93.9310,1.737,1111122 
TCOON,ioos:station:TCOON:524:1,2014-06-05T08:00:00Z,29.8672,-93.9310,1.697,1111122 
TCOON,ioos:station:TCOON:524:1,2014-06-05T09:00:00Z,29.8672,-93.9310,1.686,1111122 
TCOON,ioos:station:TCOON:524:1,2014-06-05T10:00:00Z,29.8672,-93.9310,1.701,1111122 
TCOON,ioos:station:TCOON:524:1,2014-06-05T11:00:00Z,29.8672,-93.9310,1.683,1111122 
TCOON,ioos:station:TCOON:524:1,2014-06-05T12:00:00Z,29.8672,-93.9310,1.701,1111122 
TCOON,ioos:station:TCOON:524:1,2014-06-05T13:00:00Z,29.8672,-93.9310,1.731,1111122 
TCOON,ioos:station:TCOON:524:1,2014-06-05T14:00:00Z,29.8672,-93.9310,1.77,1111122 
TCOON,ioos:station:TCOON:524:1,2014-06-05T15:00:00Z,29.8672,-93.9310,1.789,1111122 
TCOON,ioos:station:TCOON:524:1,2014-06-05T16:00:00Z,29.8672,-93.9310,1.831,1111122 
TCOON,ioos:station:TCOON:524:1,2014-06-05T17:00:00Z,29.8672,-93.9310,1.844,1111122 
TCOON,ioos:station:TCOON:524:1,2014-06-05T18:00:00Z,29.8672,-93.9310,1.844,1111122 
TCOON,ioos:station:TCOON:524:1,2014-06-05T19:00:00Z,29.8672,-93.9310,1.849,1111122 
TCOON,ioos:station:TCOON:524:1,2014-06-05T20:00:00Z,29.8672,-93.9310,1.828,1111122 
TCOON,ioos:station:TCOON:524:1,2014-06-05T21:00:00Z,29.8672,-93.9310,1.814,1111122 
TCOON,ioos:station:TCOON:524:1,2014-06-05T22:00:00Z,29.8672,-93.9310,1.776,1111122 
TCOON,ioos:station:TCOON:524:1,2014-06-05T23:00:00Z,29.8672,-93.9310,1.766,1111122 
TCOON,ioos:station:TCOON:524:1,2014-06-06T00:00:00Z,29.8672,-93.9310,1.766,1111122 
TCOON,ioos:station:TCOON:524:1,2014-06-06T01:00:00Z,29.8672,-93.9310,1.733,1111122 
TCOON,ioos:station:TCOON:524:1,2014-06-06T02:00:00Z,29.8672,-93.9310,1.743,1111122 
TCOON,ioos:station:TCOON:524:1,2014-06-06T03:00:00Z,29.8672,-93.9310,1.742,1111122 
TCOON,ioos:station:TCOON:524:1,2014-06-06T04:00:00Z,29.8672,-93.9310,1.756,1111122 
TCOON,ioos:station:TCOON:524:1,2014-06-06T05:00:00Z,29.8672,-93.9310,1.76,1111122 
TCOON,ioos:station:TCOON:524:1,2014-06-06T06:24:00Z,29.8672,-93.9310,1.763,1111122 
TCOON,ioos:station:TCOON:524:1,2014-06-06T06:54:00Z,29.8672,-93.9310,1.77,1111122 
TCOON,ioos:station:TCOON:524:1,2014-06-06T08:00:00Z,29.8672,-93.9310,1.763,1111122 
TCOON,ioos:station:TCOON:524:1,2014-06-06T09:00:00Z,29.8672,-93.9310,1.755,1111122 
TCOON,ioos:station:TCOON:524:1,2014-06-06T10:00:00Z,29.8672,-93.9310,1.742,1111122 
TCOON,ioos:station:TCOON:524:1,2014-06-06T11:00:00Z,29.8672,-93.9310,1.753,1111122 
TCOON,ioos:station:TCOON:524:1,2014-06-06T12:00:00Z,29.8672,-93.9310,1.738,1111122 
TCOON,ioos:station:TCOON:524:1,2014-06-06T13:00:00Z,29.8672,-93.9310,1.741,1111122 
TCOON,ioos:station:TCOON:524:1,2014-06-06T14:00:00Z,29.8672,-93.9310,1.682,1111122 
TCOON,ioos:station:TCOON:524:1,2014-06-06T15:00:00Z,29.8672,-93.9310,1.767,1111122 
TCOON,ioos:station:TCOON:524:1,2014-06-06T16:00:00Z,29.8672,-93.9310,1.792,1111122 
TCOON,ioos:station:TCOON:524:1,2014-06-06T17:00:00Z,29.8672,-93.9310,1.809,1111122 
TCOON,ioos:station:TCOON:524:1,2014-06-06T18:00:00Z,29.8672,-93.9310,1.818,1111122 
TCOON,ioos:station:TCOON:524:1,2014-06-06T19:00:00Z,29.8672,-93.9310,1.809,1111122 
TCOON,ioos:station:TCOON:524:1,2014-06-06T20:00:00Z,29.8672,-93.9310,1.8,1111122 
TCOON,ioos:station:TCOON:524:1,2014-06-06T21:00:00Z,29.8672,-93.9310,1.768,1111122 
TCOON,ioos:station:TCOON:524:1,2014-06-06T22:00:00Z,29.8672,-93.9310,1.717,1111122 
TCOON,ioos:station:TCOON:524:1,2014-06-06T23:00:00Z,29.8672,-93.9310,1.702,1111122 
TCOON,ioos:station:TCOON:524:1,2014-06-07T00:00:00Z,29.8672,-93.9310,1.645,1111122 
TCOON,ioos:station:TCOON:524:1,2014-06-07T01:00:00Z,29.8672,-93.9310,1.622,1111122 
TCOON,ioos:station:TCOON:524:1,2014-06-07T02:00:00Z,29.8672,-93.9310,1.634,1111122 
TCOON,ioos:station:TCOON:524:1,2014-06-07T03:00:00Z,29.8672,-93.9310,1.634,1111122 
TCOON,ioos:station:TCOON:524:1,2014-06-07T04:00:00Z,29.8672,-93.9310,1.658,1111122 
TCOON,ioos:station:TCOON:524:1,2014-06-07T05:00:00Z,29.8672,-93.9310,1.691,1111122 
TCOON,ioos:station:TCOON:524:1,2014-06-07T06:00:00Z,29.8672,-93.9310,1.724,1111122 
TCOON,ioos:station:TCOON:524:1,2014-06-07T07:00:00Z,29.8672,-93.9310,1.749,1111122 
TCOON,ioos:station:TCOON:524:1,2014-06-07T08:00:00Z,29.8672,-93.9310,1.76,1111122 
TCOON,ioos:station:TCOON:524:1,2014-06-07T09:00:00Z,29.8672,-93.9310,1.752,1111122 
TCOON,ioos:station:TCOON:524:1,2014-06-07T10:00:00Z,29.8672,-93.9310,1.741,1111122 
TCOON,ioos:station:TCOON:524:1,2014-06-07T11:00:00Z,29.8672,-93.9310,1.733,1111122 
TCOON,ioos:station:TCOON:524:1,2014-06-07T11:54:00Z,29.8672,-93.9310,1.714,1111122 
TCOON,ioos:station:TCOON:524:1,2014-06-07T13:00:00Z,29.8672,-93.9310,1.71,1111122 
TCOON,ioos:station:TCOON:524:1,2014-06-07T14:00:00Z,29.8672,-93.9310,1.716,1111122 
TCOON,ioos:station:TCOON:524:1,2014-06-07T15:06:00Z,29.8672,-93.9310,1.748,1111122 
TCOON,ioos:station:TCOON:524:1,2014-06-07T16:00:00Z,29.8672,-93.9310,1.777,1111122 
TCOON,ioos:station:TCOON:524:1,2014-06-07T17:00:00Z,29.8672,-93.9310,1.779,1111122 
TCOON,ioos:station:TCOON:524:1,2014-06-07T18:00:00Z,29.8672,-93.9310,1.795,1111122 
TCOON,ioos:station:TCOON:524:1,2014-06-07T19:00:00Z,29.8672,-93.9310,1.789,1111122 
TCOON,ioos:station:TCOON:524:1,2014-06-07T20:00:00Z,29.8672,-93.9310,1.768,1111122 
TCOON,ioos:station:TCOON:524:1,2014-06-07T21:00:00Z,29.8672,-93.9310,1.745,1111122 
TCOON,ioos:station:TCOON:524:1,2014-06-07T21:54:00Z,29.8672,-93.9310,1.704,1111122 
TCOON,ioos:station:TCOON:524:1,2014-06-07T23:00:00Z,29.8672,-93.9310,1.588,1111122 
TCOON,ioos:station:TCOON:524:1,2014-06-08T00:00:00Z,29.8672,-93.9310,1.607,1111122 
TCOON,ioos:station:TCOON:524:1,2014-06-08T01:00:00Z,29.8672,-93.9310,1.588,1111122 
TCOON,ioos:station:TCOON:524:1,2014-06-08T01:54:00Z,29.8672,-93.9310,1.576,1111122 
TCOON,ioos:station:TCOON:524:1,2014-06-08T03:00:00Z,29.8672,-93.9310,1.603,1111122 
TCOON,ioos:station:TCOON:524:1,2014-06-08T04:12:00Z,29.8672,-93.9310,1.624,1111122 
TCOON,ioos:station:TCOON:524:1,2014-06-08T05:00:00Z,29.8672,-93.9310,1.633,1111122 
TCOON,ioos:station:TCOON:524:1,2014-06-08T06:24:00Z,29.8672,-93.9310,1.698,1111122 
TCOON,ioos:station:TCOON:524:1,2014-06-08T07:00:00Z,29.8672,-93.9310,1.733,1111122 
TCOON,ioos:station:TCOON:524:1,2014-06-08T08:00:00Z,29.8672,-93.9310,1.747,1111122 
TCOON,ioos:station:TCOON:524:1,2014-06-08T09:00:00Z,29.8672,-93.9310,1.759,1111122 
TCOON,ioos:station:TCOON:524:1,2014-06-08T10:00:00Z,29.8672,-93.9310,1.763,1111122 
TCOON,ioos:station:TCOON:524:1,2014-06-08T11:00:00Z,29.8672,-93.9310,1.758,1111122 
TCOON,ioos:station:TCOON:524:1,2014-06-08T12:00:00Z,29.8672,-93.9310,1.778,1111122 
TCOON,ioos:station:TCOON:524:1,2014-06-08T13:00:00Z,29.8672,-93.9310,1.781,1111122 
TCOON,ioos:station:TCOON:524:1,2014-06-08T14:00:00Z,29.8672,-93.9310,1.777,1111122 
TCOON,ioos:station:TCOON:524:1,2014-06-08T15:00:00Z,29.8672,-93.9310,1.808,1111122 
TCOON,ioos:station:TCOON:524:1,2014-06-08T16:00:00Z,29.8672,-93.9310,1.793,1111122 
TCOON,ioos:station:TCOON:524:1,2014-06-08T17:00:00Z,29.8672,-93.9310,1.808,1111122 
TCOON,ioos:station:TCOON:524:1,2014-06-08T18:00:00Z,29.8672,-93.9310,1.806,1111122 
TCOON,ioos:station:TCOON:524:1,2014-06-08T19:00:00Z,29.8672,-93.9310,1.809,1111122 
TCOON,ioos:station:TCOON:524:1,2014-06-08T20:00:00Z,29.8672,-93.9310,1.815,1111122 
TCOON,ioos:station:TCOON:524:1,2014-06-08T21:00:00Z,29.8672,-93.9310,1.702,1111122 
TCOON,ioos:station:TCOON:524:1,2014-06-08T22:00:00Z,29.8672,-93.9310,1.657,1111122 
TCOON,ioos:station:TCOON:524:1,2014-06-08T23:00:00Z,29.8672,-93.9310,1.609,1111122 
TCOON,ioos:station:TCOON:524:1,2014-06-09T00:00:00Z,29.8672,-93.9310,1.577,1111122 
TCOON,ioos:station:TCOON:524:1,2014-06-09T01:00:00Z,29.8672,-93.9310,1.562,1111122 
TCOON,ioos:station:TCOON:524:1,2014-06-09T02:00:00Z,29.8672,-93.9310,1.541,1111122 
TCOON,ioos:station:TCOON:524:1,2014-06-09T03:00:00Z,29.8672,-93.9310,1.563,1111122 
TCOON,ioos:station:TCOON:524:1,2014-06-09T04:00:00Z,29.8672,-93.9310,1.597,1111122 
TCOON,ioos:station:TCOON:524:1,2014-06-09T05:00:00Z,29.8672,-93.9310,1.609,1111122 
TCOON,ioos:station:TCOON:524:1,2014-06-09T06:30:00Z,29.8672,-93.9310,1.692,1111122 
TCOON,ioos:station:TCOON:524:1,2014-06-09T07:00:00Z,29.8672,-93.9310,1.737,1111122 
TCOON,ioos:station:TCOON:524:1,2014-06-09T08:00:00Z,29.8672,-93.9310,1.768,1111122 
TCOON,ioos:station:TCOON:524:1,2014-06-09T09:00:00Z,29.8672,-93.9310,1.752,1111122 
TCOON,ioos:station:TCOON:524:1,2014-06-09T10:00:00Z,29.8672,-93.9310,1.762,1111122 
TCOON,ioos:station:TCOON:524:1,2014-06-09T11:00:00Z,29.8672,-93.9310,1.769,1111122 
TCOON,ioos:station:TCOON:524:1,2014-06-09T12:00:00Z,29.8672,-93.9310,1.788,1111122 
TCOON,ioos:station:TCOON:524:1,2014-06-09T12:54:00Z,29.8672,-93.9310,1.801,1111122 
TCOON,ioos:station:TCOON:524:1,2014-06-09T14:00:00Z,29.8672,-93.9310,1.805,1111122 
TCOON,ioos:station:TCOON:524:1,2014-06-09T15:00:00Z,29.8672,-93.9310,1.86,1111122 
TCOON,ioos:station:TCOON:524:1,2014-06-09T16:00:00Z,29.8672,-93.9310,1.884,1111122 
TCOON,ioos:station:TCOON:524:1,2014-06-09T17:00:00Z,29.8672,-93.9310,1.885,1111122 
TCOON,ioos:station:TCOON:524:1,2014-06-09T18:00:00Z,29.8672,-93.9310,1.899,1111122 
TCOON,ioos:station:TCOON:524:1,2014-06-09T19:00:00Z,29.8672,-93.9310,1.894,1111122 
TCOON,ioos:station:TCOON:524:1,2014-06-09T19:54:00Z,29.8672,-93.9310,1.878,1111122 
TCOON,ioos:station:TCOON:524:1,2014-06-09T21:00:00Z,29.8672,-93.9310,1.843,1111122 
TCOON,ioos:station:TCOON:524:1,2014-06-09T22:00:00Z,29.8672,-93.9310,1.776,1111122 
TCOON,ioos:station:TCOON:524:1,2014-06-09T23:00:00Z,29.8672,-93.9310,1.708,1111122 
TCOON,ioos:station:TCOON:524:1,2014-06-10T00:00:00Z,29.8672,-93.9310,1.676,1111122 
TCOON,ioos:station:TCOON:524:1,2014-06-10T01:00:00Z,29.8672,-93.9310,1.558,1111122 
TCOON,ioos:station:TCOON:524:1,2014-06-10T02:00:00Z,29.8672,-93.9310,1.596,1111122 
TCOON,ioos:station:TCOON:524:1,2014-06-10T03:00:00Z,29.8672,-93.9310,1.586,1111122 
TCOON,ioos:station:TCOON:524:1,2014-06-10T04:00:00Z,29.8672,-93.9310,1.618,1111122 
TCOON,ioos:station:TCOON:524:1,2014-06-10T05:00:00Z,29.8672,-93.9310,1.664,1111122 
TCOON,ioos:station:TCOON:524:1,2014-06-10T06:24:00Z,29.8672,-93.9310,1.73,1111122 
TCOON,ioos:station:TCOON:524:1,2014-06-10T07:00:00Z,29.8672,-93.9310,1.79,1111122 
TCOON,ioos:station:TCOON:524:1,2014-06-10T08:00:00Z,29.8672,-93.9310,1.858,1111122 
TCOON,ioos:station:TCOON:524:1,2014-06-10T09:00:00Z,29.8672,-93.9310,1.882,1111122 
TCOON,ioos:station:TCOON:524:1,2014-06-10T10:00:00Z,29.8672,-93.9310,1.899,1111122 
TCOON,ioos:station:TCOON:524:1,2014-06-10T11:00:00Z,29.8672,-93.9310,1.897,1111122 
TCOON,ioos:station:TCOON:524:1,2014-06-10T12:00:00Z,29.8672,-93.9310,1.924,1111122 
TCOON,ioos:station:TCOON:524:1,2014-06-10T13:00:00Z,29.8672,-93.9310,1.926,1111122 
TCOON,ioos:station:TCOON:524:1,2014-06-10T14:00:00Z,29.8672,-93.9310,1.894,1111122 
TCOON,ioos:station:TCOON:524:1,2014-06-10T15:00:00Z,29.8672,-93.9310,1.927,1111122 
TCOON,ioos:station:TCOON:524:1,2014-06-10T16:00:00Z,29.8672,-93.9310,1.888,1111122 
TCOON,ioos:station:TCOON:524:1,2014-06-10T17:00:00Z,29.8672,-93.9310,1.908,1111122 
TCOON,ioos:station:TCOON:524:1,2014-06-10T18:00:00Z,29.8672,-93.9310,1.932,1111122 
TCOON,ioos:station:TCOON:524:1,2014-06-10T19:00:00Z,29.8672,-93.9310,1.848,1111122 
TCOON,ioos:station:TCOON:524:1,2014-06-10T20:00:00Z,29.8672,-93.9310,1.794,1111122 
TCOON,ioos:station:TCOON:524:1,2014-06-10T21:00:00Z,29.8672,-93.9310,1.738,1111122 
TCOON,ioos:station:TCOON:524:1,2014-06-10T22:00:00Z,29.8672,-93.9310,1.666,1111122 
TCOON,ioos:station:TCOON:524:1,2014-06-10T23:00:00Z,29.8672,-93.9310,1.614,1111122 
TCOON,ioos:station:TCOON:524:1,2014-06-11T00:00:00Z,29.8672,-93.9310,1.554,1111122 
TCOON,ioos:station:TCOON:524:1,2014-06-11T01:00:00Z,29.8672,-93.9310,1.513,1111122 
TCOON,ioos:station:TCOON:524:1,2014-06-11T02:00:00Z,29.8672,-93.9310,1.497,1111122 
TCOON,ioos:station:TCOON:524:1,2014-06-11T03:00:00Z,29.8672,-93.9310,1.456,1111122 
TCOON,ioos:station:TCOON:524:1,2014-06-11T04:00:00Z,29.8672,-93.9310,1.455,1111122 
TCOON,ioos:station:TCOON:524:1,2014-06-11T04:54:00Z,29.8672,-93.9310,1.451,1111122 
TCOON,ioos:station:TCOON:524:1,2014-06-11T06:30:00Z,29.8672,-93.9310,1.522,1111122 
TCOON,ioos:station:TCOON:524:1,2014-06-11T07:00:00Z,29.8672,-93.9310,1.511,1111122 
TCOON,ioos:station:TCOON:524:1,2014-06-11T08:00:00Z,29.8672,-93.9310,1.548,1111122 
TCOON,ioos:station:TCOON:524:1,2014-06-11T09:00:00Z,29.8672,-93.9310,1.607,1111122 
TCOON,ioos:station:TCOON:524:1,2014-06-11T10:00:00Z,29.8672,-93.9310,1.65,1111122 
TCOON,ioos:station:TCOON:524:1,2014-06-11T11:00:00Z,29.8672,-93.9310,1.677,1111122 
TCOON,ioos:station:TCOON:524:1,2014-06-11T12:00:00Z,29.8672,-93.9310,1.688,1111122 
TCOON,ioos:station:TCOON:524:1,2014-06-11T13:00:00Z,29.8672,-93.9310,1.683,1111122 
TCOON,ioos:station:TCOON:524:1,2014-06-11T14:00:00Z,29.8672,-93.9310,1.699,1111122 
TCOON,ioos:station:TCOON:524:1,2014-06-11T15:00:00Z,29.8672,-93.9310,1.719,1111122 
TCOON,ioos:station:TCOON:524:1,2014-06-11T16:00:00Z,29.8672,-93.9310,1.73,1111122 
TCOON,ioos:station:TCOON:524:1,2014-06-11T17:00:00Z,29.8672,-93.9310,1.715,1111122 
TCOON,ioos:station:TCOON:524:1,2014-06-11T18:00:00Z,29.8672,-93.9310,1.708,1111122 
TCOON,ioos:station:TCOON:524:1,2014-06-11T19:00:00Z,29.8672,-93.9310,1.733,1111122 
TCOON,ioos:station:TCOON:524:1,2014-06-11T19:54:00Z,29.8672,-93.9310,1.718,1111122 
TCOON,ioos:station:TCOON:524:1,2014-06-11T20:54:00Z,29.8672,-93.9310,1.659,1111122 
TCOON,ioos:station:TCOON:524:1,2014-06-11T22:00:00Z,29.8672,-93.9310,1.662,1111122 
TCOON,ioos:station:TCOON:524:1,2014-06-11T23:00:00Z,29.8672,-93.9310,1.601,1111122 
TCOON,ioos:station:TCOON:524:1,2014-06-12T00:00:00Z,29.8672,-93.9310,1.539,1111122 
TCOON,ioos:station:TCOON:524:1,2014-06-12T01:00:00Z,29.8672,-93.9310,1.458,1111122 
TCOON,ioos:station:TCOON:524:1,2014-06-12T02:00:00Z,29.8672,-93.9310,1.407,1111122 
TCOON,ioos:station:TCOON:524:1,2014-06-12T03:00:00Z,29.8672,-93.9310,1.359,1111122 
TCOON,ioos:station:TCOON:524:1,2014-06-12T04:00:00Z,29.8672,-93.9310,1.369,1111122 
TCOON,ioos:station:TCOON:524:1,2014-06-12T05:00:00Z,29.8672,-93.9310,1.37,1111122 
TCOON,ioos:station:TCOON:524:1,2014-06-12T06:30:00Z,29.8672,-93.9310,1.478,1111122 
TCOON,ioos:station:TCOON:524:1,2014-06-12T07:00:00Z,29.8672,-93.9310,1.498,1111122 
TCOON,ioos:station:TCOON:524:1,2014-06-12T08:00:00Z,29.8672,-93.9310,1.608,1111122 
TCOON,ioos:station:TCOON:524:1,2014-06-12T09:00:00Z,29.8672,-93.9310,1.689,1111122 
TCOON,ioos:station:TCOON:524:1,2014-06-12T10:00:00Z,29.8672,-93.9310,1.703,1111122 
TCOON,ioos:station:TCOON:524:1,2014-06-12T11:00:00Z,29.8672,-93.9310,1.739,1111122 
TCOON,ioos:station:TCOON:524:1,2014-06-12T12:00:00Z,29.8672,-93.9310,1.753,1111122 
TCOON,ioos:station:TCOON:524:1,2014-06-12T13:00:00Z,29.8672,-93.9310,1.789,1111122 
TCOON,ioos:station:TCOON:524:1,2014-06-12T14:00:00Z,29.8672,-93.9310,1.792,1111122 
TCOON,ioos:station:TCOON:524:1,2014-06-12T15:00:00Z,29.8672,-93.9310,1.859,1111122 
TCOON,ioos:station:TCOON:524:1,2014-06-12T16:00:00Z,29.8672,-93.9310,1.793,1111122 
TCOON,ioos:station:TCOON:524:1,2014-06-12T17:00:00Z,29.8672,-93.9310,1.792,1111122 
TCOON,ioos:station:TCOON:524:1,2014-06-12T18:00:00Z,29.8672,-93.9310,1.823,1111122 
TCOON,ioos:station:TCOON:524:1,2014-06-12T19:00:00Z,29.8672,-93.9310,1.834,1111122 
TCOON,ioos:station:TCOON:524:1,2014-06-12T20:00:00Z,29.8672,-93.9310,1.858,1111122 